Weather History for Catania, Italy

Change the Weather History Date:

Monday, June 4, 2012

  Actual Average Record
Temperature  
Mean Temperature 72 °F -  
Max Temperature 84 °F 84 °F 91 °F (1999)
Min Temperature 60 °F 61 °F 51 °F (2014)
Cooling Degree Days 7    
Growing Degree Days 22 (Base 50)    
Moisture  
Dew Point 45 °F    
Average Humidity 42    
Maximum Humidity 64    
Minimum Humidity 21    
Precipitation  
Precipitation 0.00 in 0.01 in - ()
Sea Level Pressure  
Sea Level Pressure 29.93 in    
Wind  
Wind Speed 9 mph ()    
Max Wind Speed 15 mph    
Max Gust Speed -    
Visibility 6.2 miles    
Events      
Averages and records for this station are not official NWS values.
T = Trace of Precipitation, MM = Missing Value Source: Averaged Metar Reports

Daily Weather History Graph

Daily Weather History Graph

Search for Another Location

Airport:

Trip Planner

Search our weather history database for the weather conditions in past years. The results will help you decide how hot, cold, wet, or windy it might be!

Date:

Astronomy

Jun. 04, 2012 Rise Set
Actual Time 5:39 AM CEST 8:17 PM CEST
Civil Twilight 5:08 AM CEST 8:47 PM CEST
Nautical Twilight 4:30 AM CEST 9:26 PM CEST
Astronomical Twilight 3:47 AM CEST 10:09 PM CEST
Moon 8:29 PM CEST (6/4) 5:28 AM CEST (6/4)
Length of Visible Light 15h 39m
Length of Day
14h 37m
Full, 100% of the Moon is Illuminated
Jun 4
Full
Jun 4
Full
Jun 11
Last Quarter
Jun 19
New
Jun 27
First Quarter

Hourly Weather History & Observations

Time (CEST) Temp. Dew Point Humidity Pressure Visibility Wind Dir Wind Speed Gust Speed Precip Events Conditions
12:20 AM 66.2 °F 41.0 °F 40% 30.01 in - West 8.1 mph - N/A   Clear
12:50 AM 64.4 °F 41.0 °F 42% 30.01 in - West 8.1 mph - N/A   Clear
1:20 AM 66.2 °F 41.0 °F 40% 29.98 in - West 8.1 mph - N/A   Clear
1:50 AM 64.4 °F 41.0 °F 42% 29.98 in - WSW 9.2 mph - N/A   Clear
2:20 AM 64.4 °F 41.0 °F 42% 29.98 in - WSW 9.2 mph - N/A   Clear
2:50 AM 64.4 °F 39.2 °F 40% 29.98 in - West 8.1 mph - N/A   Clear
3:20 AM 62.6 °F 41.0 °F 45% 29.98 in - WSW 9.2 mph - N/A   Clear
3:50 AM 64.4 °F 39.2 °F 40% 29.98 in - West 10.4 mph - N/A   Clear
4:20 AM 64.4 °F 39.2 °F 40% 29.95 in - West 10.4 mph - N/A   Clear
4:50 AM 62.6 °F 39.2 °F 42% 29.95 in - West 9.2 mph - N/A   Clear
5:20 AM 60.8 °F 39.2 °F 45% 29.95 in - WSW 12.7 mph - N/A   Clear
5:50 AM 62.6 °F 37.4 °F 39% 29.95 in - West 8.1 mph - N/A   Clear
6:20 AM 66.2 °F 37.4 °F 35% 29.95 in 6.2 mi West 9.2 mph - N/A   Partly Cloudy
6:50 AM 64.4 °F 41.0 °F 42% 29.95 in 6.2 mi SW 6.9 mph - N/A   Partly Cloudy
7:20 AM 66.2 °F 42.8 °F 43% 29.95 in 6.2 mi WSW 9.2 mph - N/A   Partly Cloudy
7:50 AM 71.6 °F 41.0 °F 33% 29.95 in 6.2 mi West 11.5 mph - N/A   Partly Cloudy
8:20 AM 71.6 °F 42.8 °F 35% 29.95 in 6.2 mi WSW 15.0 mph - N/A   Partly Cloudy
8:50 AM 75.2 °F 44.6 °F 34% 29.95 in 6.2 mi WSW 15.0 mph - N/A   Partly Cloudy
9:20 AM 77.0 °F 41.0 °F 28% 29.95 in 6.2 mi West 12.7 mph - N/A   Partly Cloudy
9:50 AM 78.8 °F 37.4 °F 23% 29.95 in 6.2 mi West 15.0 mph - N/A   Partly Cloudy
10:20 AM 78.8 °F 39.2 °F 24% 29.95 in 6.2 mi West 12.7 mph - N/A   Scattered Clouds
10:50 AM 80.6 °F 37.4 °F 21% 29.95 in 6.2 mi West 15.0 mph - N/A   Scattered Clouds
11:20 AM 80.6 °F 41.0 °F 24% 29.95 in 6.2 mi West 12.7 mph - N/A   Mostly Cloudy
11:50 AM 84.2 °F 41.0 °F 22% 29.95 in 6.2 mi West 11.5 mph - N/A   Mostly Cloudy
12:20 PM 82.4 °F 41.0 °F 23% 29.95 in 6.2 mi West 10.4 mph - N/A   Mostly Cloudy
12:50 PM 84.2 °F 44.6 °F 25% 29.95 in 6.2 mi WSW 11.5 mph - N/A   Mostly Cloudy
1:20 PM 84.2 °F 44.6 °F 25% 29.92 in 6.2 mi SW 6.9 mph - N/A   Mostly Cloudy
1:50 PM 77.0 °F 51.8 °F 41% 29.92 in 6.2 mi East 11.5 mph - N/A   Mostly Cloudy
2:20 PM 73.4 °F 51.8 °F 47% 29.92 in 6.2 mi ENE 11.5 mph - N/A   Mostly Cloudy
2:50 PM 71.6 °F 53.6 °F 53% 29.92 in 6.2 mi ENE 10.4 mph - N/A   Mostly Cloudy
3:20 PM 71.6 °F 53.6 °F 53% 29.92 in 6.2 mi ENE 8.1 mph - N/A   Light Drizzle
3:50 PM 73.4 °F 51.8 °F 47% 29.89 in 6.2 mi East 8.1 mph - N/A   Light Drizzle
4:20 PM 77.0 °F 50.0 °F 39% 29.89 in 6.2 mi NE 8.1 mph - N/A   Mostly Cloudy
4:50 PM 78.8 °F 44.6 °F 30% 29.89 in 6.2 mi ENE 8.1 mph - N/A   Scattered Clouds
5:50 PM 73.4 °F 55.4 °F 53% 29.89 in 6.2 mi ENE 6.9 mph - N/A   Mostly Cloudy
6:20 PM 75.2 °F 46.4 °F 36% 29.86 in 6.2 mi ENE 8.1 mph - N/A   Mostly Cloudy
6:50 PM 75.2 °F 44.6 °F 34% 29.86 in 6.2 mi ENE 6.9 mph - N/A   Mostly Cloudy
7:20 PM 71.6 °F 51.8 °F 50% 29.89 in 6.2 mi East 5.8 mph - N/A   Partly Cloudy
7:50 PM 68.0 °F 53.6 °F 60% 29.89 in 6.2 mi East 5.8 mph - N/A   Partly Cloudy
8:20 PM 69.8 °F 53.6 °F 56% 29.89 in 6.2 mi ENE 5.8 mph - N/A   Partly Cloudy
8:50 PM 68.0 °F 53.6 °F 60% 29.89 in 6.2 mi ESE 5.8 mph - N/A   Partly Cloudy
9:20 PM 66.2 °F 53.6 °F 64% 29.89 in 6.2 mi Variable 2.3 mph - N/A   Partly Cloudy
9:50 PM 68.0 °F 53.6 °F 60% 29.89 in 6.2 mi Variable 1.2 mph - N/A   Partly Cloudy
10:20 PM 66.2 °F 53.6 °F 64% 29.89 in 6.2 mi WSW 6.9 mph - N/A   Partly Cloudy
10:50 PM 66.2 °F 51.8 °F 60% 29.92 in 6.2 mi West 5.8 mph - N/A   Partly Cloudy
11:20 PM 69.8 °F 55.4 °F 60% 29.92 in 6.2 mi WNW 10.4 mph - N/A   Partly Cloudy
11:50 PM 68.0 °F 55.4 °F 64% 29.92 in 6.2 mi West 8.1 mph - N/A   Partly Cloudy